This is the latest recevied weather packets stored in our database for station/object EA7AVH-10. If no packets are shown the sender has not sent any weather packets the latest 10 day(s).
| Time | Temp. | Humidity | Pressure | Rain* | Wind** | Luminosity | Snow |
|---|---|---|---|---|---|---|---|
| 1777953754 | 10.56° C | 61% | 920.9 hPa | - | - | - | - |
| 1777952854 | 10.56° C | 60% | 920.9 hPa | - | - | - | - |
| 1777951953 | 10° C | 60% | 920.8 hPa | - | - | - | - |
| 1777951052 | 10° C | 59% | 920.8 hPa | - | - | - | - |
| 1777950151 | 10.56° C | 59% | 921 hPa | - | - | - | - |
| 1777949250 | 10° C | 59% | 920.9 hPa | - | - | - | - |
| 1777948350 | 10.56° C | 59% | 920.9 hPa | - | - | - | - |
| 1777947449 | 10.56° C | 59% | 920.8 hPa | - | - | - | - |
| 1777946548 | 11.11° C | 59% | 920.7 hPa | - | - | - | - |
| 1777945647 | 10.56° C | 58% | 920.7 hPa | - | - | - | - |
| 1777944746 | 10.56° C | 57% | 920.9 hPa | - | - | - | - |
| 1777943846 | 11.11° C | 57% | 921 hPa | - | - | - | - |
| 1777942945 | 11.11° C | 56% | 921 hPa | - | - | - | - |
| 1777942044 | 10.56° C | 56% | 921.2 hPa | - | - | - | - |
| 1777941143 | 11.11° C | 56% | 921.4 hPa | - | - | - | - |
| 1777940242 | 11.67° C | 55% | 921.5 hPa | - | - | - | - |
| 1777939341 | 11.67° C | 55% | 921.7 hPa | - | - | - | - |
| 1777938441 | 11.67° C | 55% | 921.8 hPa | - | - | - | - |
| 1777937540 | 11.67° C | 54% | 921.8 hPa | - | - | - | - |
| 1777936639 | 12.78° C | 54% | 921.9 hPa | - | - | - | - |
| 1777935757 | 12.78° C | 53% | 921.9 hPa | - | - | - | - |
| 1777934856 | 13.33° C | 53% | 922 hPa | - | - | - | - |
| 1777933955 | 13.33° C | 52% | 921.9 hPa | - | - | - | - |
| 1777933055 | 13.89° C | 51% | 921.9 hPa | - | - | - | - |
| 1777932154 | 14.44° C | 50% | 921.9 hPa | - | - | - | - |
* Rain since midnight (hover to see other rain measurements)
** Current wind speed in m/s (hover to see current wind gust speed)